STARLINK-1770 (46383 NORAD) Tracking and Keplerian Element Data

This shows tracking and keplerian element data for the satellite.

Feedback or suggestion? Click here.




ElementValue
Catalog46383
NameSTARLINK-1770
Epoch Orbit179
Epoch Day336.91667824
Epoch Year2020
RAAN12.7862
Inclination52.9968
Eccentricity0.0001288
Argument of Perigee77.9586
Mean Anonmoly172.3713
Mean Motion15.05563073
Decay Rate0.00026655
L11 46383U 20062BL 20336.91667824 .00026655 00000-0 18425-2 0 9997
L22 46383 52.9968 12.7862 0001288 77.9586 172.3713 15.05563073 1798

Live tracking and technical data element details for STARLINK-1770 (NORAD 46383). STARLINK-1770 can be tracked NOW for your location showing map with azimuth and elevation plus other details from your city location.

Track the satellite on the map from your city or location and see movement details for azimuth, elevation, latitude, longitude, range, height, and movement on the map or in text.







IsCatalogInMostPopularTable: catalog: 46383, numindb: 36
Update: records affected: 1



GetName: 46383 STARLINK-1770

Hit Count: updated at: Thu, 03 Dec 2020 08:05:57 GMT